This is the latest recevied weather packets stored in our database for station/object KO4DYK. If no packets are shown the sender has not sent any weather packets the latest 10 day(s).
| Time | Temp. | Humidity | Pressure | Rain* | Wind** | Luminosity | Snow |
|---|---|---|---|---|---|---|---|
| 1787878238 | 26.67° C | 83% | 1015.9 hPa | 0 mm | - | 0 W/m² | - |
| 1787877934 | 26.67° C | 84% | 1015.9 hPa | 0 mm | - | 0 W/m² | - |
| 1787877630 | 27.22° C | 84% | 1015.8 hPa | 0 mm | - | 0 W/m² | - |
| 1787877325 | 27.22° C | 85% | 1015.6 hPa | 0 mm | - | 0 W/m² | - |
| 1787877020 | 27.22° C | 84% | 1015.6 hPa | 0 mm | - | 0 W/m² | - |
| 1787876715 | 27.78° C | 84% | 1015.5 hPa | 0 mm | - | 2 W/m² | - |
| 1787876410 | 27.78° C | 84% | 1015.5 hPa | 0 mm | - | 4 W/m² | - |
| 1787876109 | 27.78° C | 82% | 1015.6 hPa | 0 mm | - | 5 W/m² | - |
| 1787875804 | 28.33° C | 83% | 1015.4 hPa | 0 mm | - | 8 W/m² | - |
| 1787875503 | 28.33° C | 81% | 1015.4 hPa | 0 mm | - | 12 W/m² | - |
| 1787875202 | 28.89° C | 80% | 1015.5 hPa | 0 mm | - | 19 W/m² | - |
| 1787874901 | 29.44° C | 76% | 1015.6 hPa | 0 mm | - | 16 W/m² | - |
| 1787874596 | 30° C | 74% | 1015.4 hPa | 0 mm | - | 14 W/m² | - |
| 1787874291 | 30° C | 74% | 1015.4 hPa | 0 mm | - | 17 W/m² | - |
| 1787873990 | 30° C | 73% | 1015.4 hPa | 0 mm | - | 32 W/m² | - |
| 1787873690 | 30° C | 71% | 1015.3 hPa | 0 mm | - | 37 W/m² | - |
| 1787873385 | 30.56° C | 70% | 1015.4 hPa | 0 mm | - | 43 W/m² | - |
| 1787873085 | 30.56° C | 70% | 1015.3 hPa | 0 mm | - | 49 W/m² | - |
| 1787872779 | 30.56° C | 70% | 1015.4 hPa | 0 mm | - | 53 W/m² | - |
| 1787872476 | 31.11° C | 68% | 1015.2 hPa | 0 mm | - | 60 W/m² | - |
| 1787872176 | 31.11° C | 68% | 1015.3 hPa | 0 mm | - | 85 W/m² | - |
| 1787871875 | 31.11° C | 68% | 1015.3 hPa | 0 mm | - | 79 W/m² | - |
| 1787871569 | 31.11° C | 67% | 1015.5 hPa | 0 mm | - | 77 W/m² | - |
| 1787871266 | 30.56° C | 67% | 1015.4 hPa | 0 mm | - | 81 W/m² | - |
| 1787870968 | 30.56° C | 68% | 1015.3 hPa | 0 mm | - | 65 W/m² | - |
* Rain latest hour (hover to see other rain measurements)
** Current wind speed in m/s (hover to see current wind gust speed)